This is the latest recevied weather packets stored in our database for station/object NI4CE-11. If no packets are shown the sender has not sent any weather packets the latest 10 day(s).
| Time | Temp. | Humidity | Pressure | Rain* | Wind** | Luminosity | Snow |
|---|---|---|---|---|---|---|---|
| 1777500620 | 31.67° C | 100% | 1012.4 hPa | 0 mm | - | - | - |
| 1777500320 | 31.67° C | 100% | 1012.5 hPa | 0 mm | - | - | - |
| 1777500020 | 32.22° C | 100% | 1012.5 hPa | 0 mm | - | - | - |
| 1777499720 | 32.22° C | 100% | 1012.5 hPa | 0 mm | - | - | - |
| 1777499420 | 32.22° C | 100% | 1012.4 hPa | 0 mm | - | - | - |
| 1777499120 | 32.22° C | 100% | 1012.5 hPa | 0 mm | - | - | - |
| 1777498820 | 32.22° C | 100% | 1012.4 hPa | 0 mm | - | - | - |
| 1777498520 | 31.67° C | 100% | 1012.4 hPa | 0 mm | - | - | - |
| 1777498220 | 32.22° C | 100% | 1012.5 hPa | 0 mm | - | - | - |
| 1777497920 | 32.78° C | 100% | 1012.6 hPa | 0 mm | - | - | - |
| 1777497620 | 32.78° C | 100% | 1012.7 hPa | 0 mm | - | - | - |
| 1777497619 | 33.33° C | 100% | 1012.7 hPa | 0 mm | - | - | - |
| 1777497320 | 33.33° C | 100% | 1012.7 hPa | 0 mm | - | - | - |
| 1777497020 | 33.33° C | 100% | 1012.7 hPa | 0 mm | - | - | - |
| 1777496894 | 32.78° C | 100% | 1012.8 hPa | 0 mm | - | - | - |
| 1777496720 | 32.78° C | 100% | 1012.8 hPa | 0 mm | - | - | - |
| 1777496586 | 33.89° C | 100% | 1013 hPa | 0 mm | - | - | - |
| 1777496420 | 33.33° C | 100% | 1012.9 hPa | 0 mm | - | - | - |
| 1777496120 | 33.33° C | 100% | 1012.9 hPa | 0 mm | - | - | - |
| 1777495820 | 33.89° C | 100% | 1013 hPa | 0 mm | - | - | - |
| 1777495520 | 33.33° C | 100% | 1013.1 hPa | 0 mm | - | - | - |
| 1777495312 | 33.33° C | 100% | 1013.1 hPa | 0 mm | - | - | - |
| 1777495220 | 33.33° C | 100% | 1013.1 hPa | 0 mm | - | - | - |
| 1777494920 | 33.89° C | 100% | 1013.2 hPa | 0 mm | - | - | - |
| 1777494659 | 33.89° C | 100% | 1013.5 hPa | 0 mm | - | - | - |
* Rain latest hour (hover to see other rain measurements)
** Current wind speed in m/s (hover to see current wind gust speed)